Location: Newark
(49.8667°N, 4.3500°E)
Time: 19:39:29
(UTC+00:00)

Envisat - Visible Passes

Search period start: 22 October 2019 00:00
Search period end: 01 November 2019 00:00
Orbit: 764 x 766 km, 98.1° (Epoch: 22 October)

Date Brightness Start Highest point End Pass type
(mag) Time Alt. Az. Time Alt. Az. Time Alt. Az.
22 Oct 6.7 05:03:40 10° ENE 05:04:08 10° E 05:04:37 10° E visible
22 Oct 3.6 17:58:07 10° S 18:03:08 60° W 18:08:12 10° NNW visible
23 Oct 3.0 17:21:19 10° SSE 17:26:21 69° ENE 17:31:26 10° N visible
23 Oct 5.7 19:02:22 10° SW 19:05:54 19° W 19:09:27 10° NW visible
24 Oct 6.1 05:26:41 10° NE 05:30:02 17° E 05:33:22 10° SE visible
24 Oct 4.6 18:24:06 10° SSW 18:28:46 37° W 18:33:29 10° NNW visible
25 Oct 3.2 17:46:46 10° S 17:51:51 74° WSW 17:56:57 10° NNW visible
25 Oct 6.2 19:30:17 10° W 19:31:46 11° W 19:33:16 10° WNW visible
26 Oct 3.1 17:10:10 10° SSE 17:15:07 57° ENE 17:20:06 10° N visible
26 Oct 5.4 18:50:30 10° SW 18:54:30 23° W 18:58:31 10° NW visible
27 Oct 6.2 05:15:58 10° NE 05:18:36 14° E 05:21:15 10° ESE visible
27 Oct 4.2 18:12:35 10° S 18:17:26 45° W 18:22:20 10° NNW visible
28 Oct 3.0 17:35:29 10° SSE 17:40:34 90° S 17:45:42 10° NNW visible
28 Oct 6.0 19:17:42 10° WSW 19:20:20 14° W 19:22:59 10° NW visible
29 Oct 5.8 05:40:25 10° NE 05:44:27 23° E 05:48:26 10° SE visible
29 Oct 3.3 16:59:04 10° SE 17:03:54 46° ENE 17:08:46 10° N visible
29 Oct 5.1 18:38:48 10° SSW 18:43:07 28° W 18:47:29 10° NW visible
30 Oct 6.5 05:05:40 10° ENE 05:07:10 11° E 05:08:39 10° E visible
30 Oct 3.7 18:01:09 10° S 18:06:07 56° W 18:11:09 10° NNW visible
31 Oct 2.9 17:24:15 10° SSE 17:29:19 75° ENE 17:34:25 10° N visible
31 Oct 5.8 19:05:35 10° SW 19:08:55 17° W 19:12:16 10° NW visible
